VTI211 VOMM-VIDP

Flight info

Callsign VTI211
Flight time N/A
Altitude 40000
Route KAMGU2B/25 KAMGU Q24 BAVOX BAVOX6G
Aircraft B748/H-SDE3FGHIM1M2RWXY/LB1

Departure

Time 2026-04-30 17:41
Airport Chennai International Airport (VOMM)

Arrival

Time N/A
Airport Indira Gandhi International Airport (VIDP)
Time Latitude Longitude Altitude Speed Heading
2026-04-30 17:39 13.04662 80.08842 4896 ft 307 kts 25°
2026-04-30 17:41 13.21122 80.14136 11300 ft 353 kts
2026-04-30 17:42 13.26110 80.14333 13238 ft 365 kts
2026-04-30 17:42 13.33735 80.13602 13834 ft 369 kts 339°
2026-04-30 17:43 13.38425 80.11485 13846 ft 366 kts 337°
2026-04-30 17:44 13.45573 80.08414 15943 ft 386 kts 338°
2026-04-30 17:44 13.53256 80.05068 18209 ft 412 kts 338°
2026-04-30 17:46 13.66929 79.99127 21735 ft 439 kts 335°
2026-04-30 17:47 13.78283 79.94187 24566 ft 448 kts 334°
2026-04-30 17:48 13.89816 79.89166 27304 ft 449 kts 335°
2026-04-30 17:48 13.98427 79.85412 29531 ft 445 kts 335°
2026-04-30 17:49 14.09722 79.80485 32128 ft 438 kts 336°
2026-04-30 17:50 14.21038 79.75542 34055 ft 444 kts 336°
2026-04-30 17:51 14.29531 79.71829 35384 ft 444 kts 336°
2026-04-30 17:52 14.38020 79.68115 36789 ft 439 kts 336°
2026-04-30 17:53 14.51833 79.62064 39131 ft 420 kts 337°
2026-04-30 17:54 14.62488 79.57392 39795 ft 423 kts 337°
2026-04-30 17:55 14.73566 79.52528 39819 ft 443 kts 337°
2026-04-30 17:56 14.85180 79.47424 39818 ft 464 kts 337°
2026-04-30 17:57 14.94256 79.43431 39823 ft 481 kts 337°
2026-04-30 17:58 15.04052 79.40784 39824 ft 490 kts 349°
2026-04-30 18:00 15.30702 79.35865 39825 ft 486 kts 349°
2026-04-30 18:01 15.47309 79.32791 39829 ft 487 kts 349°
2026-04-30 18:02 15.67318 79.29080 39845 ft 487 kts 349°
2026-04-30 18:04 15.87314 79.25364 39864 ft 487 kts 349°
2026-04-30 18:06 16.13942 79.20404 39872 ft 488 kts 349°
2026-04-30 18:08 16.36214 79.16245 39869 ft 488 kts 349°
2026-04-30 18:10 16.62975 79.11235 39862 ft 488 kts 349°
2026-04-30 18:11 16.86338 79.06849 39856 ft 487 kts 349°
2026-04-30 18:13 17.03028 79.03709 39857 ft 488 kts 349°
2026-04-30 18:14 17.19731 79.00561 39851 ft 487 kts 349°
2026-04-30 18:15 17.39712 78.96787 39875 ft 487 kts 349°
2026-04-30 18:16 17.53083 78.94258 39875 ft 489 kts 349°
2026-04-30 18:17 17.59768 78.92992 39878 ft 488 kts 349°
2026-04-30 18:18 17.69806 78.91089 39869 ft 489 kts 349°
2026-04-30 18:18 17.76497 78.89819 39863 ft 488 kts 349°
2026-04-30 18:19 17.83223 78.88541 39864 ft 493 kts 349°
2026-04-30 18:19 17.89960 78.87261 39853 ft 491 kts 349°
2026-04-30 18:20 17.96691 78.85981 39851 ft 491 kts 349°
2026-04-30 18:20 18.03414 78.84701 39846 ft 491 kts 349°
2026-04-30 18:21 18.10143 78.83419 39855 ft 491 kts 349°
2026-04-30 18:21 18.16882 78.82134 39852 ft 493 kts 349°
2026-04-30 18:22 18.23636 78.80845 39851 ft 493 kts 349°
2026-04-30 18:22 18.33731 78.78918 39852 ft 493 kts 349°
2026-04-30 18:23 18.40486 78.77626 39848 ft 494 kts 349°
2026-04-30 18:23 18.47251 78.76332 39845 ft 494 kts 349°
2026-04-30 18:24 18.57389 78.74390 39836 ft 494 kts 349°
2026-04-30 18:25 18.64147 78.73095 39842 ft 494 kts 349°
2026-04-30 18:25 18.74297 78.71147 39833 ft 494 kts 349°
2026-04-30 18:26 18.84392 78.69207 39831 ft 493 kts 348°
2026-04-30 18:27 18.94508 78.67261 39834 ft 492 kts 348°
2026-04-30 18:28 19.04612 78.65315 39832 ft 492 kts 348°
2026-04-30 18:28 19.14713 78.63367 39833 ft 491 kts 348°
2026-04-30 18:29 19.28146 78.60773 39833 ft 491 kts 348°
2026-04-30 18:30 19.41578 78.58174 39835 ft 490 kts 348°
2026-04-30 18:31 19.51637 78.56225 39829 ft 490 kts 348°
2026-04-30 18:32 19.61690 78.54275 39824 ft 490 kts 348°
2026-04-30 18:33 19.71744 78.52322 39818 ft 490 kts 348°
2026-04-30 18:33 19.81752 78.50376 39815 ft 490 kts 348°
2026-04-30 18:34 19.91809 78.48418 39816 ft 490 kts 348°
2026-04-30 18:35 19.98517 78.47110 39809 ft 490 kts 348°
2026-04-30 18:35 20.05225 78.45801 39810 ft 490 kts 348°
2026-04-30 18:36 20.15278 78.43838 39801 ft 489 kts 348°
2026-04-30 18:37 20.25319 78.41874 39800 ft 489 kts 348°
2026-04-30 18:37 20.31967 78.40572 39802 ft 489 kts 348°
2026-04-30 18:38 20.38655 78.39261 39802 ft 489 kts 348°
2026-04-30 18:38 20.45340 78.37950 39804 ft 488 kts 348°
2026-04-30 18:39 20.52021 78.36639 39800 ft 488 kts 348°
2026-04-30 18:39 20.58695 78.35327 39801 ft 488 kts 348°
2026-04-30 18:40 20.65381 78.34013 39797 ft 488 kts 348°
2026-04-30 18:40 20.72053 78.32699 39800 ft 488 kts 348°
2026-04-30 18:41 20.78735 78.31383 39796 ft 488 kts 348°
2026-04-30 18:41 20.85366 78.30075 39797 ft 488 kts 348°
2026-04-30 18:42 20.92041 78.28758 39802 ft 488 kts 348°
2026-04-30 18:42 21.02057 78.26779 39813 ft 488 kts 348°
2026-04-30 18:45 21.38720 78.19512 39850 ft 487 kts 348°
2026-04-30 18:46 21.45316 78.18201 39831 ft 483 kts 347°
2026-04-30 18:46 21.51961 78.16878 39827 ft 482 kts 347°
2026-04-30 18:47 21.58509 78.15574 39826 ft 482 kts 347°
2026-04-30 18:47 21.65107 78.14258 39836 ft 482 kts 347°
2026-04-30 18:48 21.71703 78.12942 39835 ft 482 kts 347°
2026-04-30 18:48 21.78301 78.11624 39842 ft 482 kts 347°
2026-04-30 18:49 21.84905 78.10304 39849 ft 482 kts 347°
2026-04-30 18:49 21.91504 78.08983 39843 ft 482 kts 347°
2026-04-30 18:50 21.98102 78.07662 39843 ft 482 kts 347°
2026-04-30 18:50 22.04705 78.06338 39847 ft 482 kts 347°
2026-04-30 18:51 22.11278 78.05019 39847 ft 480 kts 347°
2026-04-30 18:51 22.17842 78.03700 39842 ft 480 kts 347°
2026-04-30 18:52 22.24406 78.02380 39832 ft 480 kts 347°
2026-04-30 18:52 22.30977 78.01106 39508 ft 480 kts 350°
2026-04-30 18:52 22.34328 78.00576 39135 ft 486 kts 346°
2026-04-30 18:53 22.37519 77.99819 39118 ft 468 kts 344°
2026-04-30 18:53 22.43883 77.98403 39333 ft 467 kts 348°
2026-04-30 18:53 22.47101 77.97839 39447 ft 471 kts 347°
2026-04-30 18:54 22.50330 77.97192 39585 ft 474 kts 346°
2026-04-30 18:54 22.53581 77.96487 39692 ft 478 kts 346°
2026-04-30 18:54 22.56810 77.95824 39815 ft 479 kts 347°
2026-04-30 18:55 22.59031 77.95391 39822 ft 480 kts 347°